Notices

What's New in latest Release from April 7th, 2021:

- Updated Glossary, including Speed of Maximum Gust, and Total Hourly Precipitation

- Updated national and regional climate services offices contacts and prices information

- Addition of station inventory lists for 1981-2010, 1971-2000, and 1961-1990 Normals.

If you haven't already, please take our survey and provide feedback about our website: https://eccc.sondage-survey.ca/f/LanguageSelection.aspx?s=442ca660-fcf1-47c0-95a9-59707d6fd709

Hourly Data Report for March 14, 2010

HALIFAX STANFIELD INT'L A
NOVA SCOTIA

44°52'48.060" N
63°30'00.050" W
145.40 m
8202250
71395
YHZ

Download Data

Hourly Data (March 2010)
Hourly Data Report for March 14, 2010
TIME
LST
Temp Definition
°C
Dew Point Definition
°C
Rel Hum Definition
%
Precip. Amount Definition
mm

Wind Dir Definition
10's deg

Wind Spd Definition
km/h
Visibility Definition
km
Stn Press Definition
kPa
Hmdx Definition


Wind Chill Definition


Weather Definition


00:00 -4.7 -5.8 92   12 11 24.1 101.19   -9 Mostly Cloudy
01:00 -4.0 -5.3 91   11 11 24.1 101.16   -8 Cloudy
02:00 -3.5 -4.8 91   13 11 24.1 101.13   -8 Cloudy
03:00 -2.7 -4.2 89   13 13 24.1 101.08   -7 Cloudy
04:00 -2.1 -3.9 87   14 20 24.1 101.09   -8 Cloudy
05:00 -1.9 -3.7 87   13 17 24.1 101.06   -7 Cloudy
06:00 -1.7 -3.6 87   12 20 24.1 101.03   -7 Cloudy
07:00 -1.4 -3.4 86   13 19 24.1 101.03   -7 Cloudy
08:00 -0.6 -3.0 84   12 20 24.1 101.02   -6 Cloudy
09:00 0.4 -2.3 82   12 24 24.1 100.99     Cloudy
10:00 2.6 -1.5 74   12 26 24.1 100.96     Mostly Cloudy
11:00 4.5 -2.1 62   12 26 24.1 100.93     Cloudy
12:00 4.9 -3.3 55   12 28 24.1 100.90     Cloudy
13:00 6.0 -4.7 46   12 26 24.1 100.81     Cloudy
14:00 6.6 -5.3 42   11 33 24.1 100.75     Mostly Cloudy
15:00 6.8 -5.0 43   12 28 24.1 100.70     Mainly Clear
16:00 6.3 -5.4 43   11 28 24.1 100.65     Mainly Clear
17:00 5.2 -4.5 50   10 22 24.1 100.61     Mainly Clear
18:00 3.4 -5.0 54   10 15 24.1 100.57     Mainly Clear
19:00 1.2 -6.8 55   11 11 24.1 100.55     Mainly Clear
20:00 -0.3 -11.2 44   9 9 24.1 100.51   -3 Mainly Clear
21:00 -0.6 -11.7 43   9 22 24.1 100.46   -6 Mainly Clear
22:00 -1.4 -10.9 48   10 17 24.1 100.42   -7 Mainly Clear
23:00 -1.4 -10.5 50   11 19 24.1 100.33   -7 Mainly Clear

Notes on Data Quality.

Legend

  • E = Estimated
  • M = Missing
  • NA = Not Available*
  • [empty] = Indicates an unobserved value
Date modified: